W0CHP-13 Weather Reports


time (UTC)temp
F
wind
direction
speed
knots
gust
knots
rain 1hr
in
rain 24hr
in
rain mn
in
humidity
%
barometer
mb
20260504010317 67 202 0.0 0.9 0.00 0.00 0.00 26 1002.3
20260504005315 68 295 0.9 1.7 0.00 0.00 0.00 26 1002.7
20260504004318 68 292 0.9 1.7 0.00 0.00 0.00 26 1002.3
20260504003316 69 15 0.9 3.5 0.00 0.00 0.00 26 1002.3
20260504002318 69 9 0.9 1.7 0.00 0.00 0.00 25 1002.3
20260504001317 70 351 0.9 1.7 0.00 0.00 0.00 25 1002.3
20260504000318 70 279 1.7 3.5 0.00 0.00 0.00 25 1002.3
20260503235317 71 258 1.7 3.5 0.00 0.00 0.00 26 1002.1
20260503234315 71 240 0.9 1.7 0.00 0.00 0.00 28 1002.3
20260503233317 71 307 1.7 2.6 0.00 0.00 0.00 27 1002.3
20260503232315 71 343 2.6 3.5 0.00 0.00 0.00 27 1002.5
20260503231317 71 331 1.7 3.5 0.00 0.00 0.00 28 1002.3
20260503230316 71 271 1.7 6.1 0.00 0.00 0.00 28 1002.3
20260503225318 72 17 0.9 5.2 0.00 0.00 0.00 29 1002.1
20260503224316 73 294 0.9 2.6 0.00 0.00 0.00 28 1002.1
20260503223318 72 23 0.0 0.9 0.00 0.00 0.00 29 1002.1
20260503222316 72 283 0.9 5.2 0.00 0.00 0.00 26 1002.0
20260503221315 72 300 1.7 3.5 0.00 0.00 0.00 25 1002.3
20260503220317 74 316 0.9 3.5 0.00 0.00 0.00 26 1002.3
20260503215315 73 300 0.9 2.6 0.00 0.00 0.00 27 1002.1
20260503214317 73 324 1.7 5.2 0.00 0.00 0.00 27 1002.0
20260503213316 73 350 0.0 0.0 0.00 0.00 0.00 25 1002.3
20260503212317 73 277 1.7 3.5 0.00 0.00 0.00 27 1002.0
20260503211316 73 287 3.5 8.7 0.00 0.00 0.00 26 1002.7
20260503210318 74 344 3.5 7.0 0.00 0.00 0.00 25 1002.7
20260503205316 74 305 3.5 6.1 0.00 0.00 0.00 26 1002.7
20260503204318 74 313 2.6 6.1 0.00 0.00 0.00 25 1002.7
20260503203316 74 278 2.6 7.0 0.00 0.00 0.00 25 1002.7
20260503202315 75 15 0.9 1.7 0.00 0.00 0.00 27 1002.7
20260503201317 74 161 0.9 3.5 0.00 0.00 0.00 27 1002.7
20260503200315 75 8 2.6 5.2 0.00 0.00 0.00 26 1003.0
20260503195317 75 266 2.6 5.2 0.00 0.00 0.00 28 1003.0
20260503194315 75 355 2.6 5.2 0.00 0.00 0.00 28 1003.0
20260503193318 76 333 2.6 6.1 0.00 0.00 0.00 28 1003.0
20260503192316 75 309 1.7 3.5 0.00 0.00 0.00 29 1003.0
20260503191318 75 270 1.7 3.5 0.00 0.00 0.00 29 1003.0
20260503190316 73 309 2.6 7.0 0.00 0.00 0.00 28 1003.2
20260503185318 76 38 1.7 3.5 0.00 0.00 0.00 27 1003.2
20260503184316 74 229 1.7 2.6 0.00 0.00 0.00 32 1003.2
20260503183314 74 360 1.7 3.5 0.00 0.00 0.00 30 1003.4
20260503182317 74 351 1.7 3.5 0.00 0.00 0.00 30 1003.4
20260503181315 75 315 1.7 3.5 0.00 0.00 0.00 27 1003.4
20260503180317 77 319 3.5 8.7 0.00 0.00 0.00 28 1003.4
20260503175315 78 354 1.7 2.6 0.00 0.00 0.00 28 1003.4
20260503174317 77 2 0.0 1.7 0.00 0.00 0.00 27 1003.5
20260503173316 77 332 3.5 5.2 0.00 0.00 0.00 27 1003.7
20260503172318 77 275 0.9 2.6 0.00 0.00 0.00 26 1003.5
20260503171316 79 257 0.9 1.7 0.00 0.00 0.00 26 1003.7
20260503170318 79 218 0.9 3.5 0.00 0.00 0.00 28 1003.7
20260503150316 75 277 1.7 2.6 0.00 0.00 0.00 27 1004.2
20260503131316 64 221 2.6 7.8 0.00 0.00 0.00 37 1004.7
20260503130315 62 208 3.5 8.7 0.00 0.00 0.00 37 1004.7
20260503110317 55 72 1.7 3.5 0.00 0.00 0.00 44 1004.2
20260503090316 56 224 4.3 11.3 0.00 0.00 0.00 41 1006.1
20260503081318 55 199 2.6 3.5 0.00 0.00 0.00 39 1007.0
20260503080317 55 216 0.9 2.6 0.00 0.00 0.00 38 1006.8
20260503072318 56 195 1.7 5.2 0.00 0.00 0.00 38 1007.2
20260503071316 56 250 2.6 5.2 0.00 0.00 0.00 37 1007.3
20260503070318 56 175 0.9 1.7 0.00 0.00 0.00 38 1007.5
20260503060315 57 247 1.7 5.2 0.00 0.00 0.00 37 1008.0
20260503054316 57 258 1.7 6.1 0.00 0.00 0.00 37 1008.5
20260503053318 57 242 0.9 1.7 0.00 0.00 0.00 36 1008.4
20260503052316 57 206 0.9 2.6 0.00 0.00 0.00 36 1008.7
20260503051318 57 219 0.9 2.6 0.00 0.00 0.00 36 1008.9
20260503050316 58 231 2.6 6.1 0.00 0.00 0.00 36 1008.7
20260503045318 58 240 0.9 2.6 0.00 0.00 0.00 35 1008.7
20260503044316 58 213 1.7 3.5 0.00 0.00 0.00 35 1008.7
20260503043319 58 240 1.7 3.5 0.00 0.00 0.00 35 1008.9
20260503042316 58 214 1.7 3.5 0.00 0.00 0.00 35 1008.9
20260503041315 59 189 0.0 0.0 0.00 0.00 0.00 35 1009.1
20260503040317 59 248 0.9 1.7 0.00 0.00 0.00 34 1009.1
20260503035315 59 270 1.7 3.5 0.00 0.00 0.00 34 1009.2
20260503034317 59 219 0.9 3.5 0.00 0.00 0.00 33 1009.2
20260503033315 59 203 1.7 6.1 0.00 0.00 0.00 34 1009.4
20260503032317 60 185 0.9 3.5 0.00 0.00 0.00 34 1009.6
20260503031315 60 218 0.9 2.6 0.00 0.00 0.00 33 1009.6
20260503030317 60 224 0.0 0.9 0.00 0.00 0.00 32 1009.6
20260503025315 60 256 0.9 1.7 0.00 0.00 0.00 32 1009.6
20260503024317 60 203 0.9 5.2 0.00 0.00 0.00 34 1009.7
20260503023315 60 202 1.7 3.5 0.00 0.00 0.00 33 1009.9
20260503022317 60 270 0.0 0.0 0.00 0.00 0.00 33 1009.9
20260503021315 60 312 0.9 1.7 0.00 0.00 0.00 33 1010.1
20260503020317 60 233 0.9 2.6 0.00 0.00 0.00 34 1009.9
20260503015316 60 212 0.0 0.9 0.00 0.00 0.00 33 1010.1
20260503014318 60 243 0.0 0.9 0.00 0.00 0.00 33 1009.9
20260503013316 60 295 0.0 0.0 0.00 0.00 0.00 32 1010.1
20260503012318 61 291 0.0 0.0 0.00 0.00 0.00 32 1010.1
20260503011316 61 288 0.0 0.9 0.00 0.00 0.00 31 1009.9